| time (UTC) | temp F | wind direction | speed knots | gust knots | rain 1hr in | rain 24hr in | rain mn in | humidity % | barometer mb |
| 20260507141526 | 62 | 190 | 2.6 | 7.8 | 0.00 | 0.00 | 0.00 | 42 | 1015.7 |
| 20260507141007 | 62 | 110 | 0.0 | 1.7 | 0.00 | 0.00 | 0.00 | 42 | 1015.6 |
| 20260507140507 | 62 | 139 | 0.0 | 3.5 | 0.00 | 0.00 | 0.00 | 43 | 1015.7 |
| 20260507140028 | 62 | 196 | 0.9 | 3.5 | 0.00 | 0.00 | 0.00 | 42 | 1015.7 |
| 20260507135503 | 62 | 138 | 0.9 | 6.1 | 0.00 | 0.00 | 0.00 | 47 | 1015.8 |
| 20260507135008 | 61 | 184 | 3.5 | 6.1 | 0.00 | 0.00 | 0.00 | 47 | 1015.9 |
| 20260507134519 | 61 | 122 | 3.5 | 6.1 | 0.00 | 0.00 | 0.00 | 45 | 1015.8 |
| 20260507134006 | 61 | 171 | 0.9 | 2.6 | 0.00 | 0.00 | 0.00 | 47 | 1015.9 |
| 20260507133507 | 60 | 142 | 0.9 | 2.6 | 0.00 | 0.00 | 0.00 | 47 | 1015.9 |
| 20260507133022 | 60 | 28 | 0.9 | 2.6 | 0.00 | 0.00 | 0.00 | 46 | 1016.0 |
| 20260507132511 | 60 | 50 | 0.0 | 2.6 | 0.00 | 0.00 | 0.00 | 47 | 1016.0 |
| 20260507132009 | 60 | 126 | 1.7 | 5.2 | 0.00 | 0.00 | 0.00 | 48 | 1016.1 |
| 20260507131530 | 60 | 103 | 1.7 | 5.2 | 0.00 | 0.00 | 0.00 | 45 | 1016.0 |
| 20260507131003 | 60 | 145 | 1.7 | 5.2 | 0.00 | 0.00 | 0.00 | 48 | 1016.0 |
| 20260507130504 | 60 | 261 | 0.9 | 6.1 | 0.00 | 0.00 | 0.00 | 45 | 1016.0 |
| 20260507130011 | 61 | 98 | 2.6 | 6.1 | 0.00 | 0.00 | 0.00 | 45 | 1016.0 |
| 20260507125508 | 61 | 352 | 0.9 | 6.1 | 0.00 | 0.00 | 0.00 | 43 | 1016.0 |
| 20260507125004 | 61 | 170 | 1.7 | 5.2 | 0.00 | 0.00 | 0.00 | 44 | 1015.9 |
| 20260507124519 | 61 | 154 | 0.9 | 5.2 | 0.00 | 0.00 | 0.00 | 42 | 1016.0 |
| 20260507124008 | 62 | 18 | 0.9 | 7.0 | 0.00 | 0.00 | 0.00 | 42 | 1016.0 |
| 20260507123510 | 62 | 234 | 0.9 | 7.0 | 0.00 | 0.00 | 0.00 | 43 | 1016.0 |
| 20260507123033 | 62 | 188 | 1.7 | 7.8 | 0.00 | 0.00 | 0.00 | 44 | 1016.0 |
| 20260507122509 | 63 | 127 | 2.6 | 7.8 | 0.00 | 0.00 | 0.00 | 41 | 1016.0 |
| 20260507122010 | 63 | 111 | 1.7 | 7.0 | 0.00 | 0.00 | 0.00 | 43 | 1016.1 |
| 20260507121524 | 63 | 161 | 1.7 | 7.0 | 0.00 | 0.00 | 0.00 | 44 | 1016.1 |
| 20260507121008 | 63 | 184 | 0.9 | 7.0 | 0.00 | 0.00 | 0.00 | 44 | 1016.1 |
| 20260507120511 | 63 | 102 | 0.9 | 7.8 | 0.00 | 0.00 | 0.00 | 42 | 1016.2 |
| 20260507120020 | 63 | 111 | 2.6 | 7.8 | 0.00 | 0.00 | 0.00 | 43 | 1016.2 |
| 20260507115503 | 63 | 161 | 1.7 | 6.1 | 0.00 | 0.00 | 0.00 | 42 | 1016.3 |
| 20260507115006 | 62 | 176 | 3.5 | 7.8 | 0.00 | 0.00 | 0.00 | 45 | 1016.3 |
| 20260507114512 | 61 | 53 | 2.6 | 7.8 | 0.00 | 0.00 | 0.00 | 45 | 1016.2 |
| 20260507114008 | 61 | 161 | 1.7 | 7.8 | 0.00 | 0.00 | 0.00 | 42 | 1016.3 |
| 20260507113511 | 62 | 118 | 2.6 | 7.8 | 0.00 | 0.00 | 0.00 | 42 | 1016.3 |
| 20260507113035 | 61 | 182 | 0.9 | 5.2 | 0.00 | 0.00 | 0.00 | 46 | 1016.2 |
| 20260507112515 | 60 | 192 | 2.6 | 5.2 | 0.00 | 0.00 | 0.00 | 45 | 1016.3 |
| 20260507112014 | 60 | 53 | 0.9 | 8.7 | 0.00 | 0.00 | 0.00 | 45 | 1016.3 |
| 20260507111522 | 60 | 200 | 1.7 | 8.7 | 0.00 | 0.00 | 0.00 | 45 | 1016.4 |
| 20260507111009 | 60 | 167 | 1.7 | 6.1 | 0.00 | 0.00 | 0.00 | 48 | 1016.3 |
| 20260507110510 | 60 | 44 | 2.6 | 6.1 | 0.00 | 0.00 | 0.00 | 48 | 1016.4 |
| 20260507110030 | 60 | 123 | 1.7 | 4.3 | 0.00 | 0.00 | 0.00 | 51 | 1016.4 |
| 20260507105506 | 60 | 352 | 1.7 | 6.1 | 0.00 | 0.00 | 0.00 | 48 | 1016.5 |
| 20260507105003 | 60 | 121 | 2.6 | 6.1 | 0.00 | 0.00 | 0.00 | 47 | 1016.5 |
| 20260507104515 | 60 | 156 | 0.9 | 5.2 | 0.00 | 0.00 | 0.00 | 45 | 1016.5 |
| 20260507104008 | 60 | 142 | 2.6 | 6.1 | 0.00 | 0.00 | 0.00 | 47 | 1016.6 |
| 20260507103505 | 59 | 145 | 2.6 | 6.1 | 0.00 | 0.00 | 0.00 | 49 | 1016.7 |
| 20260507103016 | 59 | 75 | 0.9 | 5.2 | 0.00 | 0.00 | 0.00 | 48 | 1016.7 |
| 20260507102507 | 59 | 77 | 2.6 | 5.2 | 0.00 | 0.00 | 0.00 | 53 | 1016.7 |
| 20260507102008 | 59 | 161 | 2.6 | 5.2 | 0.00 | 0.00 | 0.00 | 58 | 1016.7 |
| 20260507101520 | 59 | 136 | 2.6 | 6.1 | 0.00 | 0.00 | 0.00 | 54 | 1016.7 |
| 20260507101011 | 59 | 148 | 1.7 | 7.0 | 0.00 | 0.00 | 0.00 | 59 | 1016.7 |
| 20260507100507 | 59 | 153 | 2.6 | 7.0 | 0.00 | 0.00 | 0.00 | 54 | 1016.7 |
| 20260507100034 | 58 | 206 | 2.6 | 7.0 | 0.00 | 0.00 | 0.00 | 56 | 1016.8 |
| 20260507095510 | 57 | 167 | 2.6 | 6.1 | 0.00 | 0.00 | 0.00 | 60 | 1016.7 |
| 20260507095007 | 57 | 146 | 0.9 | 6.1 | 0.00 | 0.00 | 0.00 | 61 | 1016.6 |
| 20260507094524 | 57 | 185 | 1.7 | 6.1 | 0.00 | 0.00 | 0.00 | 60 | 1016.6 |
| 20260507094003 | 57 | 235 | 3.5 | 6.1 | 0.00 | 0.00 | 0.00 | 62 | 1016.6 |
| 20260507093504 | 56 | 155 | 2.6 | 5.2 | 0.00 | 0.00 | 0.00 | 63 | 1016.6 |
| 20260507093012 | 56 | 135 | 2.6 | 5.2 | 0.00 | 0.00 | 0.00 | 63 | 1016.7 |
| 20260507092506 | 55 | 167 | 0.9 | 5.2 | 0.00 | 0.00 | 0.00 | 63 | 1016.7 |
| 20260507092008 | 55 | 159 | 0.9 | 5.2 | 0.00 | 0.00 | 0.00 | 65 | 1016.7 |
| 20260507091522 | 54 | 102 | 1.7 | 6.1 | 0.00 | 0.00 | 0.00 | 67 | 1016.7 |
| 20260507091008 | 54 | 155 | 2.6 | 6.1 | 0.00 | 0.00 | 0.00 | 68 | 1016.8 |
| 20260507090508 | 54 | 115 | 1.7 | 6.1 | 0.00 | 0.00 | 0.00 | 69 | 1016.7 |
| 20260507090023 | 53 | 157 | 2.6 | 6.1 | 0.00 | 0.00 | 0.00 | 70 | 1016.8 |
| 20260507085508 | 53 | 94 | 1.7 | 7.0 | 0.00 | 0.00 | 0.00 | 69 | 1016.7 |
| 20260507085007 | 53 | 125 | 2.6 | 7.0 | 0.00 | 0.00 | 0.00 | 71 | 1016.7 |
| 20260507084528 | 53 | 129 | 0.9 | 7.0 | 0.00 | 0.00 | 0.00 | 71 | 1016.8 |
| 20260507084012 | 53 | 130 | 1.7 | 7.0 | 0.00 | 0.00 | 0.00 | 72 | 1016.8 |
| 20260507083512 | 53 | 84 | 2.6 | 5.2 | 0.00 | 0.00 | 0.00 | 72 | 1016.8 |
| 20260507083026 | 52 | 192 | 1.7 | 5.2 | 0.00 | 0.00 | 0.00 | 74 | 1016.8 |
| 20260507082508 | 52 | 80 | 1.7 | 6.1 | 0.00 | 0.00 | 0.00 | 74 | 1016.8 |
| 20260507082009 | 52 | 88 | 1.7 | 6.1 | 0.00 | 0.00 | 0.00 | 74 | 1016.7 |
| 20260507081518 | 51 | 138 | 2.6 | 6.1 | 0.00 | 0.00 | 0.00 | 74 | 1016.8 |
| 20260507081007 | 51 | 159 | 1.7 | 4.3 | 0.00 | 0.00 | 0.00 | 74 | 1016.7 |
| 20260507080507 | 51 | 155 | 0.9 | 4.3 | 0.00 | 0.00 | 0.00 | 75 | 1016.8 |
| 20260507080020 | 51 | 184 | 0.9 | 3.5 | 0.00 | 0.00 | 0.00 | 75 | 1016.7 |
| 20260507075510 | 50 | 105 | 1.7 | 3.5 | 0.00 | 0.00 | 0.00 | 75 | 1016.7 |
| 20260507075007 | 50 | 101 | 0.9 | 3.5 | 0.00 | 0.00 | 0.00 | 76 | 1016.7 |
| 20260507074531 | 50 | 360 | 0.9 | 3.5 | 0.00 | 0.00 | 0.00 | 77 | 1016.7 |
| 20260507074007 | 49 | 360 | 0.9 | 2.6 | 0.00 | 0.00 | 0.00 | 78 | 1016.7 |
| 20260507073508 | 49 | 107 | 0.9 | 4.3 | 0.00 | 0.00 | 0.00 | 79 | 1016.7 |
| 20260507073024 | 49 | 88 | 0.9 | 4.3 | 0.00 | 0.00 | 0.00 | 79 | 1016.7 |
| 20260507072508 | 48 | 158 | 1.7 | 3.5 | 0.00 | 0.00 | 0.00 | 79 | 1016.7 |
| 20260507072009 | 48 | 134 | 1.7 | 5.2 | 0.00 | 0.00 | 0.00 | 79 | 1016.6 |
| 20260507071517 | 48 | 111 | 0.9 | 5.2 | 0.00 | 0.00 | 0.00 | 80 | 1016.6 |
| 20260507071007 | 48 | 143 | 1.7 | 3.5 | 0.00 | 0.00 | 0.00 | 81 | 1016.6 |
| 20260507070508 | 47 | 126 | 0.9 | 3.5 | 0.00 | 0.00 | 0.00 | 82 | 1016.5 |
| 20260507070018 | 47 | 110 | 0.9 | 4.3 | 0.00 | 0.00 | 0.00 | 82 | 1016.5 |
| 20260507065513 | 47 | 96 | 1.7 | 6.1 | 0.00 | 0.00 | 0.00 | 82 | 1016.5 |
| 20260507065007 | 46 | 157 | 1.7 | 6.1 | 0.00 | 0.00 | 0.00 | 82 | 1016.5 |
| 20260507064523 | 46 | 138 | 1.7 | 3.5 | 0.00 | 0.00 | 0.00 | 84 | 1016.5 |
| 20260507064011 | 46 | 80 | 0.9 | 4.3 | 0.00 | 0.00 | 0.00 | 84 | 1016.5 |
| 20260507063511 | 45 | 89 | 0.9 | 4.3 | 0.00 | 0.00 | 0.00 | 84 | 1016.5 |
| 20260507063027 | 45 | 130 | 0.9 | 4.3 | 0.00 | 0.00 | 0.00 | 84 | 1016.5 |
| 20260507062508 | 45 | 145 | 0.9 | 5.2 | 0.00 | 0.00 | 0.00 | 85 | 1016.5 |
| 20260507062012 | 45 | 144 | 1.7 | 5.2 | 0.00 | 0.00 | 0.00 | 85 | 1016.5 |
| 20260507061533 | 45 | 115 | 1.7 | 4.3 | 0.00 | 0.00 | 0.00 | 86 | 1016.5 |
| 20260507061009 | 44 | 125 | 0.9 | 2.6 | 0.00 | 0.00 | 0.00 | 86 | 1016.5 |
| 20260507060504 | 44 | 140 | 0.0 | 1.7 | 0.00 | 0.00 | 0.00 | 87 | 1016.6 |
| 20260507060018 | 44 | 59 | 0.0 | 1.7 | 0.00 | 0.00 | 0.00 | 87 | 1016.6 |
| 20260507055508 | 44 | 123 | 0.0 | 1.7 | 0.00 | 0.00 | 0.00 | 87 | 1016.5 |
| 20260507055008 | 43 | 351 | 0.0 | 1.7 | 0.00 | 0.00 | 0.00 | 88 | 1016.4 |
| 20260507054522 | 43 | 360 | 0.9 | 1.7 | 0.00 | 0.00 | 0.00 | 88 | 1016.4 |
| 20260507054010 | 43 | 360 | 0.0 | 1.7 | 0.00 | 0.00 | 0.00 | 88 | 1016.3 |
| 20260507053507 | 43 | 360 | 0.0 | 1.7 | 0.00 | 0.00 | 0.00 | 89 | 1016.2 |
| 20260507053031 | 42 | 360 | 0.0 | 1.7 | 0.00 | 0.00 | 0.00 | 89 | 1016.2 |
| 20260507052509 | 42 | 360 | 0.0 | 1.7 | 0.00 | 0.00 | 0.00 | 89 | 1016.2 |
| 20260507052013 | 42 | 360 | 0.0 | 1.7 | 0.00 | 0.00 | 0.00 | 89 | 1016.2 |
| 20260507051526 | 42 | 360 | 0.0 | 1.7 | 0.00 | 0.00 | 0.00 | 89 | 1016.3 |
| 20260507051007 | 42 | 360 | 0.0 | 1.7 | 0.00 | 0.00 | 0.00 | 89 | 1016.3 |
| 20260507050510 | 42 | 360 | 0.0 | 1.7 | 0.00 | 0.00 | 0.00 | 88 | 1016.4 |
| 20260507050025 | 42 | 360 | 0.0 | 1.7 | 0.00 | 0.00 | 0.00 | 88 | 1016.4 |
| 20260507045509 | 42 | 360 | 0.0 | 1.7 | 0.00 | 0.00 | 0.00 | 88 | 1016.3 |
| 20260507045006 | 42 | 360 | 0.0 | 1.7 | 0.00 | 0.00 | 0.00 | 88 | 1016.4 |
| 20260507044519 | 42 | 360 | 0.0 | 2.6 | 0.00 | 0.00 | 0.00 | 88 | 1016.4 |
| 20260507044008 | 42 | 360 | 0.0 | 2.6 | 0.00 | 0.00 | 0.00 | 88 | 1016.3 |
| 20260507043510 | 42 | 360 | 0.0 | 2.6 | 0.00 | 0.00 | 0.00 | 89 | 1016.3 |
| 20260507043023 | 42 | 360 | 0.9 | 2.6 | 0.00 | 0.00 | 0.00 | 89 | 1016.3 |
| 20260507042510 | 42 | 360 | 0.0 | 1.7 | 0.00 | 0.00 | 0.00 | 89 | 1016.3 |
| 20260507042003 | 42 | 360 | 0.0 | 1.7 | 0.00 | 0.00 | 0.00 | 89 | 1016.3 |
| 20260507041505 | 42 | 360 | 0.9 | 3.5 | 0.00 | 0.00 | 0.00 | 88 | 1016.3 |
| 20260507041003 | 42 | 360 | 0.0 | 3.5 | 0.00 | 0.00 | 0.00 | 88 | 1016.2 |
| 20260507040507 | 42 | 360 | 0.9 | 3.5 | 0.00 | 0.00 | 0.00 | 89 | 1016.2 |
| 20260507040016 | 42 | 360 | 0.9 | 2.6 | 0.00 | 0.00 | 0.00 | 89 | 1016.2 |
| 20260507035507 | 42 | 360 | 0.0 | 2.6 | 0.00 | 0.00 | 0.00 | 89 | 1016.3 |
| 20260507035010 | 42 | 360 | 0.0 | 2.6 | 0.00 | 0.00 | 0.00 | 89 | 1016.2 |
| 20260507034527 | 42 | 360 | 0.9 | 1.7 | 0.00 | 0.00 | 0.00 | 89 | 1016.2 |
| 20260507034006 | 42 | 360 | 0.0 | 1.7 | 0.00 | 0.00 | 0.00 | 89 | 1016.2 |
| 20260507033507 | 42 | 360 | 0.0 | 1.7 | 0.00 | 0.00 | 0.00 | 89 | 1016.2 |
| 20260507033023 | 42 | 360 | 0.0 | 1.7 | 0.00 | 0.00 | 0.00 | 89 | 1016.3 |
| 20260507032512 | 42 | 360 | 0.0 | 1.7 | 0.00 | 0.00 | 0.00 | 89 | 1016.2 |
| 20260507032003 | 42 | 360 | 0.0 | 2.6 | 0.00 | 0.00 | 0.00 | 89 | 1016.2 |
| 20260507031506 | 42 | 360 | 0.0 | 2.6 | 0.00 | 0.00 | 0.00 | 89 | 1016.3 |
| 20260507031012 | 42 | 360 | 0.0 | 2.6 | 0.00 | 0.00 | 0.00 | 89 | 1016.2 |
| 20260507030504 | 42 | 360 | 0.0 | 2.6 | 0.00 | 0.00 | 0.00 | 90 | 1016.1 |
| 20260507030011 | 42 | 360 | 0.9 | 2.6 | 0.00 | 0.00 | 0.00 | 90 | 1016.2 |
| 20260507025507 | 42 | 360 | 0.0 | 1.7 | 0.00 | 0.00 | 0.00 | 90 | 1016.2 |
| 20260507025010 | 42 | 360 | 0.9 | 1.7 | 0.00 | 0.00 | 0.00 | 91 | 1016.2 |
| 20260507024516 | 42 | 360 | 0.0 | 2.6 | 0.00 | 0.00 | 0.00 | 91 | 1016.2 |
| 20260507024010 | 42 | 360 | 0.9 | 2.6 | 0.00 | 0.00 | 0.00 | 91 | 1016.2 |
| 20260507023509 | 42 | 360 | 0.9 | 1.7 | 0.00 | 0.00 | 0.00 | 91 | 1016.1 |
| 20260507023020 | 41 | 360 | 0.0 | 1.7 | 0.00 | 0.00 | 0.00 | 92 | 1016.2 |
| 20260507022512 | 41 | 360 | 0.0 | 1.7 | 0.00 | 0.00 | 0.00 | 92 | 1016.2 |
| 20260507022011 | 41 | 360 | 0.0 | 1.7 | 0.00 | 0.00 | 0.00 | 92 | 1016.2 |
| 20260507021523 | 41 | 360 | 0.0 | 0.0 | 0.00 | 0.00 | 0.00 | 92 | 1016.2 |
| 20260507021007 | 41 | 360 | 0.0 | 1.7 | 0.00 | 0.00 | 0.00 | 92 | 1016.1 |
| 20260507020504 | 41 | 360 | 0.0 | 1.7 | 0.00 | 0.00 | 0.00 | 92 | 1015.9 |
| 20260507020008 | 41 | 360 | 0.0 | 1.7 | 0.00 | 0.00 | 0.00 | 92 | 1015.9 |
| 20260507015503 | 41 | 360 | 0.0 | 1.7 | 0.00 | 0.00 | 0.00 | 92 | 1016.0 |
| 20260507015004 | 41 | 360 | 0.0 | 0.0 | 0.00 | 0.00 | 0.00 | 91 | 1016.0 |
| 20260507014520 | 41 | 360 | 0.0 | 0.0 | 0.00 | 0.00 | 0.00 | 92 | 1016.1 |
| 20260507014008 | 41 | 360 | 0.0 | 1.7 | 0.00 | 0.00 | 0.00 | 92 | 1016.1 |
| 20260507013506 | 41 | 360 | 0.0 | 1.7 | 0.00 | 0.00 | 0.00 | 92 | 1016.1 |
| 20260507013020 | 40 | 360 | 0.0 | 1.7 | 0.00 | 0.00 | 0.00 | 92 | 1016.1 |
| 20260507012507 | 40 | 360 | 0.0 | 1.7 | 0.00 | 0.00 | 0.00 | 92 | 1016.1 |
| 20260507012008 | 40 | 360 | 0.0 | 1.7 | 0.00 | 0.00 | 0.00 | 92 | 1016.1 |
| 20260507011523 | 40 | 360 | 0.0 | 1.7 | 0.00 | 0.00 | 0.00 | 92 | 1016.1 |
| 20260507011007 | 40 | 360 | 0.0 | 0.9 | 0.00 | 0.00 | 0.00 | 91 | 1016.2 |
| 20260507010511 | 40 | 360 | 0.0 | 0.0 | 0.00 | 0.00 | 0.00 | 91 | 1016.2 |
| 20260507010033 | 40 | 360 | 0.0 | 0.0 | 0.00 | 0.00 | 0.00 | 91 | 1016.3 |
| 20260507005502 | 40 | 360 | 0.0 | 1.7 | 0.00 | 0.00 | 0.00 | 91 | 1016.3 |
| 20260507005004 | 40 | 360 | 0.0 | 1.7 | 0.00 | 0.00 | 0.00 | 90 | 1016.3 |
| 20260507004513 | 40 | 360 | 0.0 | 0.0 | 0.00 | 0.00 | 0.00 | 90 | 1016.3 |
| 20260507004006 | 40 | 360 | 0.0 | 0.0 | 0.00 | 0.00 | 0.00 | 90 | 1016.3 |
| 20260507003507 | 41 | 360 | 0.0 | 0.0 | 0.00 | 0.00 | 0.00 | 89 | 1016.3 |
| 20260507003015 | 41 | 360 | 0.0 | 0.0 | 0.00 | 0.00 | 0.00 | 90 | 1016.3 |
| 20260507002505 | 41 | 360 | 0.0 | 1.7 | 0.00 | 0.00 | 0.00 | 90 | 1016.4 |
| 20260507002007 | 41 | 360 | 0.0 | 1.7 | 0.00 | 0.00 | 0.00 | 91 | 1016.4 |
| 20260507001523 | 41 | 360 | 0.0 | 1.7 | 0.00 | 0.00 | 0.00 | 91 | 1016.4 |
| 20260507001008 | 41 | 360 | 0.0 | 0.9 | 0.00 | 0.00 | 0.00 | 91 | 1016.5 |
| 20260507000509 | 41 | 360 | 0.0 | 0.0 | 0.00 | 0.00 | 0.00 | 91 | 1016.6 |
| 20260507000028 | 41 | 360 | 0.0 | 0.0 | 0.00 | 0.00 | 0.00 | 91 | 1016.7 |
| 20260506235509 | 41 | 360 | 0.0 | 0.0 | 0.00 | 0.00 | 0.00 | 91 | 1016.7 |
| 20260506235012 | 41 | 360 | 0.0 | 1.7 | 0.00 | 0.00 | 0.00 | 92 | 1016.7 |
| 20260506234543 | 41 | 360 | 0.0 | 1.7 | 0.00 | 0.00 | 0.00 | 92 | 1016.7 |
| 20260506234010 | 41 | 360 | 0.0 | 1.7 | 0.00 | 0.00 | 0.00 | 92 | 1016.7 |
| 20260506233507 | 40 | 360 | 0.0 | 1.7 | 0.00 | 0.00 | 0.00 | 93 | 1016.7 |
| 20260506233014 | 40 | 360 | 0.0 | 1.7 | 0.00 | 0.00 | 0.00 | 93 | 1016.7 |
| 20260506232506 | 40 | 360 | 0.0 | 1.7 | 0.00 | 0.00 | 0.00 | 93 | 1016.7 |
| 20260506232007 | 40 | 360 | 0.0 | 0.0 | 0.00 | 0.00 | 0.00 | 93 | 1016.7 |
| 20260506231517 | 39 | 360 | 0.0 | 0.0 | 0.00 | 0.00 | 0.00 | 92 | 1016.6 |
| 20260506231007 | 39 | 360 | 0.0 | 0.0 | 0.00 | 0.00 | 0.00 | 92 | 1016.7 |
| 20260506230507 | 39 | 360 | 0.0 | 0.0 | 0.00 | 0.00 | 0.00 | 92 | 1016.7 |
| 20260506230023 | 39 | 360 | 0.0 | 0.0 | 0.00 | 0.00 | 0.00 | 92 | 1016.7 |
| 20260506225508 | 39 | 360 | 0.0 | 0.0 | 0.00 | 0.00 | 0.00 | 92 | 1016.5 |
| 20260506225007 | 39 | 360 | 0.0 | 0.0 | 0.00 | 0.00 | 0.00 | 91 | 1016.6 |
| 20260506224529 | 39 | 360 | 0.0 | 0.0 | 0.00 | 0.00 | 0.00 | 91 | 1016.6 |
| 20260506224008 | 38 | 360 | 0.0 | 0.0 | 0.00 | 0.00 | 0.00 | 90 | 1016.7 |
| 20260506223511 | 38 | 360 | 0.0 | 0.0 | 0.00 | 0.00 | 0.00 | 89 | 1016.7 |
| 20260506223009 | 38 | 360 | 0.0 | 0.0 | 0.00 | 0.00 | 0.00 | 89 | 1016.7 |
| 20260506222506 | 39 | 360 | 0.0 | 0.0 | 0.00 | 0.00 | 0.00 | 89 | 1016.7 |
| 20260506222008 | 39 | 360 | 0.0 | 0.0 | 0.00 | 0.00 | 0.00 | 88 | 1016.6 |
| 20260506221515 | 39 | 360 | 0.0 | 0.0 | 0.00 | 0.00 | 0.00 | 88 | 1016.6 |
| 20260506221005 | 39 | 360 | 0.0 | 0.0 | 0.00 | 0.00 | 0.00 | 87 | 1016.6 |
| 20260506220508 | 39 | 360 | 0.0 | 0.0 | 0.00 | 0.00 | 0.00 | 87 | 1016.5 |
| 20260506220032 | 40 | 360 | 0.0 | 0.0 | 0.00 | 0.00 | 0.00 | 87 | 1016.4 |
| 20260506215506 | 40 | 360 | 0.0 | 0.0 | 0.00 | 0.00 | 0.00 | 87 | 1016.4 |
| 20260506215010 | 40 | 360 | 0.0 | 0.0 | 0.00 | 0.00 | 0.00 | 87 | 1016.4 |
| 20260506214523 | 40 | 360 | 0.0 | 0.0 | 0.00 | 0.00 | 0.00 | 87 | 1016.4 |
| 20260506214008 | 40 | 360 | 0.0 | 0.0 | 0.00 | 0.00 | 0.00 | 86 | 1016.4 |
| 20260506213508 | 41 | 360 | 0.0 | 0.9 | 0.00 | 0.00 | 0.00 | 85 | 1016.3 |
| 20260506213026 | 41 | 360 | 0.0 | 1.7 | 0.00 | 0.00 | 0.00 | 85 | 1016.4 |
| 20260506212516 | 41 | 360 | 0.0 | 1.7 | 0.00 | 0.00 | 0.00 | 84 | 1016.4 |
| 20260506212010 | 42 | 360 | 0.0 | 0.0 | 0.00 | 0.00 | 0.00 | 84 | 1016.4 |
| 20260506211519 | 42 | 360 | 0.0 | 0.0 | 0.00 | 0.00 | 0.00 | 84 | 1016.4 |
| 20260506211006 | 42 | 360 | 0.0 | 0.9 | 0.00 | 0.00 | 0.00 | 84 | 1016.4 |
| 20260506210508 | 42 | 360 | 0.0 | 1.7 | 0.00 | 0.00 | 0.00 | 83 | 1016.3 |
| 20260506210017 | 43 | 360 | 0.0 | 1.7 | 0.00 | 0.00 | 0.00 | 83 | 1016.3 |
| 20260506205507 | 43 | 360 | 0.0 | 1.7 | 0.00 | 0.00 | 0.00 | 83 | 1016.2 |
| 20260506205010 | 43 | 360 | 0.0 | 1.7 | 0.00 | 0.00 | 0.00 | 83 | 1016.2 |
| 20260506204523 | 43 | 360 | 0.0 | 1.7 | 0.00 | 0.00 | 0.00 | 83 | 1016.0 |
| 20260506204007 | 43 | 360 | 0.0 | 1.7 | 0.00 | 0.00 | 0.00 | 83 | 1016.0 |
| 20260506203510 | 43 | 360 | 0.0 | 1.7 | 0.00 | 0.00 | 0.00 | 82 | 1016.0 |
| 20260506203026 | 43 | 360 | 0.0 | 1.7 | 0.00 | 0.00 | 0.00 | 82 | 1016.0 |
| 20260506202510 | 44 | 360 | 0.0 | 1.7 | 0.00 | 0.00 | 0.00 | 81 | 1016.0 |
| 20260506202010 | 44 | 360 | 0.0 | 1.7 | 0.00 | 0.00 | 0.00 | 80 | 1016.0 |
| 20260506201526 | 44 | 360 | 0.0 | 0.0 | 0.00 | 0.00 | 0.00 | 80 | 1016.0 |
| 20260506201009 | 45 | 360 | 0.0 | 0.0 | 0.00 | 0.00 | 0.00 | 79 | 1016.0 |
| 20260506200505 | 45 | 360 | 0.0 | 0.0 | 0.00 | 0.00 | 0.00 | 79 | 1015.9 |
| 20260506200015 | 45 | 360 | 0.0 | 0.9 | 0.00 | 0.00 | 0.00 | 78 | 1015.8 |
| 20260506195509 | 46 | 360 | 0.0 | 1.7 | 0.00 | 0.00 | 0.00 | 77 | 1015.7 |
| 20260506195010 | 46 | 360 | 0.0 | 1.7 | 0.00 | 0.00 | 0.00 | 77 | 1015.7 |
| 20260506194530 | 46 | 360 | 0.0 | 4.3 | 0.00 | 0.00 | 0.00 | 76 | 1015.7 |
| 20260506194013 | 46 | 360 | 0.9 | 4.3 | 0.00 | 0.00 | 0.00 | 76 | 1015.6 |
| 20260506193510 | 47 | 360 | 0.9 | 3.5 | 0.00 | 0.00 | 0.00 | 75 | 1015.5 |
| 20260506193024 | 47 | 360 | 0.0 | 1.7 | 0.00 | 0.00 | 0.00 | 74 | 1015.5 |
| 20260506192511 | 47 | 360 | 0.0 | 2.6 | 0.00 | 0.00 | 0.00 | 73 | 1015.5 |
| 20260506192005 | 47 | 360 | 0.9 | 3.5 | 0.00 | 0.00 | 0.00 | 73 | 1015.4 |
| 20260506191508 | 48 | 360 | 0.0 | 3.5 | 0.00 | 0.00 | 0.00 | 73 | 1015.5 |
| 20260506191004 | 48 | 360 | 1.7 | 3.5 | 0.00 | 0.00 | 0.00 | 73 | 1015.5 |
| 20260506190505 | 48 | 360 | 0.0 | 1.7 | 0.00 | 0.00 | 0.00 | 72 | 1015.6 |
| 20260506190012 | 48 | 360 | 0.0 | 1.7 | 0.00 | 0.00 | 0.00 | 71 | 1015.6 |
| 20260506185506 | 48 | 360 | 0.0 | 2.6 | 0.00 | 0.00 | 0.00 | 71 | 1015.7 |
| 20260506185006 | 48 | 360 | 0.9 | 2.6 | 0.00 | 0.00 | 0.00 | 70 | 1015.7 |
| 20260506184516 | 49 | 360 | 0.9 | 3.5 | 0.00 | 0.00 | 0.00 | 69 | 1015.6 |
| 20260506184009 | 49 | 360 | 0.0 | 3.5 | 0.00 | 0.00 | 0.00 | 69 | 1015.5 |
| 20260506183504 | 49 | 360 | 0.0 | 2.6 | 0.00 | 0.00 | 0.00 | 68 | 1015.6 |
| 20260506183004 | 49 | 360 | 0.9 | 2.6 | 0.00 | 0.00 | 0.00 | 68 | 1015.5 |
| 20260506182503 | 50 | 360 | 0.9 | 3.5 | 0.00 | 0.00 | 0.00 | 67 | 1015.4 |
| 20260506182002 | 50 | 360 | 0.0 | 6.1 | 0.00 | 0.00 | 0.00 | 66 | 1015.4 |
| 20260506181505 | 50 | 182 | 0.9 | 6.1 | 0.00 | 0.00 | 0.00 | 65 | 1015.4 |
| 20260506181003 | 51 | 51 | 0.9 | 4.3 | 0.00 | 0.00 | 0.00 | 66 | 1015.4 |
| 20260506180504 | 51 | 360 | 0.0 | 5.2 | 0.00 | 0.00 | 0.00 | 65 | 1015.4 |
| 20260506180010 | 51 | 65 | 1.7 | 7.0 | 0.00 | 0.00 | 0.00 | 64 | 1015.3 |
| 20260506175505 | 51 | 338 | 1.7 | 7.0 | 0.00 | 0.00 | 0.00 | 64 | 1015.2 |
| 20260506175009 | 51 | 163 | 0.0 | 4.3 | 0.00 | 0.00 | 0.00 | 64 | 1015.2 |
| 20260506174513 | 52 | 90 | 0.9 | 3.5 | 0.00 | 0.00 | 0.00 | 63 | 1015.2 |
| 20260506174007 | 52 | 11 | 1.7 | 4.3 | 0.00 | 0.00 | 0.00 | 64 | 1015.2 |
| 20260506173506 | 52 | 86 | 1.7 | 4.3 | 0.00 | 0.00 | 0.00 | 63 | 1015.1 |
| 20260506173023 | 52 | 31 | 0.9 | 5.2 | 0.00 | 0.00 | 0.00 | 63 | 1015.1 |
| 20260506172503 | 52 | 348 | 1.7 | 7.0 | 0.00 | 0.00 | 0.00 | 61 | 1015.0 |
| 20260506172004 | 53 | 248 | 0.9 | 7.0 | 0.00 | 0.00 | 0.00 | 61 | 1015.0 |
| 20260506171503 | 52 | 180 | 0.0 | 4.3 | 0.00 | 0.00 | 0.00 | 62 | 1015.0 |
| 20260506171006 | 52 | 111 | 0.9 | 4.3 | 0.00 | 0.00 | 0.00 | 60 | 1015.0 |
| 20260506170502 | 53 | 360 | 0.9 | 3.5 | 0.00 | 0.00 | 0.00 | 59 | 1015.0 |
| 20260506170006 | 53 | 248 | 0.9 | 6.1 | 0.00 | 0.00 | 0.00 | 59 | 1014.9 |
| 20260506165504 | 53 | 67 | 2.6 | 6.1 | 0.00 | 0.00 | 0.00 | 57 | 1014.9 |
| 20260506165003 | 53 | 342 | 0.9 | 5.2 | 0.00 | 0.00 | 0.00 | 56 | 1014.9 |
| 20260506164515 | 53 | 287 | 0.9 | 5.2 | 0.00 | 0.00 | 0.00 | 56 | 1014.9 |
| 20260506164008 | 54 | 268 | 1.7 | 3.5 | 0.00 | 0.00 | 0.00 | 55 | 1014.9 |
| 20260506163509 | 54 | 15 | 0.9 | 3.5 | 0.00 | 0.00 | 0.00 | 55 | 1014.8 |
| 20260506163019 | 54 | 342 | 0.9 | 2.6 | 0.00 | 0.00 | 0.00 | 55 | 1014.9 |
| 20260506162508 | 54 | 300 | 0.0 | 1.7 | 0.00 | 0.00 | 0.00 | 56 | 1014.8 |
| 20260506162013 | 54 | 46 | 0.9 | 3.5 | 0.00 | 0.00 | 0.00 | 55 | 1014.8 |
| 20260506161524 | 54 | 304 | 0.9 | 5.2 | 0.00 | 0.00 | 0.00 | 55 | 1014.8 |
| 20260506161003 | 54 | 360 | 0.0 | 5.2 | 0.00 | 0.00 | 0.00 | 54 | 1014.7 |
| 20260506160505 | 54 | 15 | 0.9 | 5.2 | 0.00 | 0.00 | 0.00 | 56 | 1014.7 |
| 20260506160006 | 55 | 275 | 0.0 | 5.2 | 0.00 | 0.00 | 0.00 | 53 | 1014.7 |
| 20260506155503 | 55 | 267 | 1.7 | 7.8 | 0.00 | 0.00 | 0.00 | 54 | 1014.8 |
| 20260506155004 | 56 | 307 | 1.7 | 7.8 | 0.00 | 0.00 | 0.00 | 53 | 1014.7 |
| 20260506154516 | 56 | 300 | 0.9 | 6.1 | 0.00 | 0.00 | 0.00 | 52 | 1014.7 |
| 20260506154007 | 56 | 53 | 1.7 | 6.1 | 0.00 | 0.00 | 0.00 | 52 | 1014.8 |
| 20260506153510 | 56 | 62 | 1.7 | 5.2 | 0.00 | 0.00 | 0.00 | 49 | 1014.7 |
| 20260506153013 | 57 | 67 | 1.7 | 5.2 | 0.00 | 0.00 | 0.00 | 48 | 1014.7 |
| 20260506152511 | 56 | 9 | 1.7 | 3.5 | 0.00 | 0.00 | 0.00 | 48 | 1014.7 |
| 20260506152012 | 55 | 254 | 0.9 | 3.5 | 0.00 | 0.00 | 0.00 | 47 | 1014.7 |
| 20260506151522 | 55 | 276 | 0.0 | 5.2 | 0.00 | 0.00 | 0.00 | 50 | 1014.8 |
| 20260506151010 | 55 | 41 | 1.7 | 5.2 | 0.00 | 0.00 | 0.00 | 50 | 1014.8 |
| 20260506150507 | 54 | 142 | 0.9 | 3.5 | 0.00 | 0.00 | 0.00 | 50 | 1014.9 |
| 20260506150004 | 54 | 323 | 0.9 | 4.3 | 0.00 | 0.00 | 0.00 | 51 | 1014.9 |
| 20260506145504 | 54 | 39 | 1.7 | 5.2 | 0.00 | 0.00 | 0.00 | 49 | 1014.9 |
| 20260506145005 | 54 | 360 | 0.9 | 5.2 | 0.00 | 0.00 | 0.00 | 50 | 1014.9 |
| 20260506144507 | 54 | 294 | 0.9 | 5.2 | 0.00 | 0.00 | 0.00 | 49 | 1015.0 |
| 20260506144006 | 55 | 171 | 0.9 | 7.0 | 0.00 | 0.00 | 0.00 | 51 | 1014.9 |
| 20260506143507 | 55 | 296 | 1.7 | 7.0 | 0.00 | 0.00 | 0.00 | 49 | 1015.0 |
| 20260506143028 | 55 | 37 | 0.9 | 5.2 | 0.00 | 0.00 | 0.00 | 51 | 1014.9 |
| 20260506142510 | 55 | 69 | 0.9 | 5.2 | 0.00 | 0.00 | 0.00 | 50 | 1014.9 |
| 20260506142013 | 55 | 16 | 0.9 | 7.0 | 0.00 | 0.00 | 0.00 | 49 | 1014.8 |